QPF
0.00 0.00 0.00 0.00 0.00 0.00 0.00 0.00 0.00 0.00 0.00 0.00 0.01 0.00 0.00 0.00 0.00 0.00 0.00 0.00 0.00 0.00 0.00 0.00 0.00 0.00 0.01 0.01 0.01 0.01 0.02 0.02 0.02 0.03 0.02 0.01 0.02 0.02 0.02 0.01 0.02 0.02 0.01 0.01
0.00 0.00 0.00 0.00 0.00 0.00 0.00 0.00 0.00 0.00 0.00 0.00 0.00 0.00 0.00 0.00 0.00 0.00 0.00 0.00 0.00 0.00 0.00 0.00 0.00 0.00 0.00 0.01 0.01 0.01 0.02 0.02 0.02 0.02 0.02 0.02 0.03 0.03 0.04 0.04 0.03 0.03 0.02 0.02
0.00 0.00 0.00 0.00 0.00 0.00 0.00 0.00 0.00 0.01 0.01 0.00 0.00 0.00 0.00 0.00 0.00 0.00 0.00 0.00 0.00 0.00 0.00 0.00 0.00 0.00 0.01 0.01 0.01 0.02 0.02 0.03 0.03 0.03 0.03 0.04 0.04 0.04 0.04 0.04 0.03 0.03 0.03 0.02
0.00 0.00 0.00 0.00 0.00 0.00 0.00 0.00 0.00 0.00 0.00 0.00 0.00 0.00 0.00 0.00 0.00 0.00 0.00 0.00 0.00 0.00 0.00 0.00 0.01 0.01 0.01 0.01 0.02 0.03 0.03 0.03 0.03 0.05 0.05 0.04 0.04 0.04 0.03 0.03 0.03 0.03 0.03 0.02
0.00 0.00 0.00 0.00 0.00 0.00 0.00 0.00 0.00 0.00 0.00 0.00 0.00 0.00 0.00 0.00 0.00 0.00 0.00 0.00 0.00 0.00 0.00 0.00 0.01 0.01 0.02 0.02 0.01 0.02 0.02 0.02 0.04 0.05 0.05 0.04 0.04 0.04 0.04 0.04 0.04 0.04 0.04 0.04
0.00 0.01 0.00 0.00 0.00 0.00 0.00 0.01 0.00 0.00 0.00 0.00 0.00 0.01 0.01 0.00 0.00 0.00 0.00 0.00 0.00 0.00 0.00 0.01 0.01 0.01 0.01 0.01 0.01 0.02 0.02 0.03 0.03 0.04 0.06 0.06 0.06 0.07 0.08 0.08 0.08 0.07 0.06 0.04
0.01 0.01 0.00 0.00 0.00 0.01 0.01 0.01 0.01 0.01 0.01 0.01 0.01 0.01 0.00 0.00 0.01 0.00 0.00 0.00 0.00 0.01 0.01 0.02 0.02 0.03 0.03 0.02 0.02 0.02 0.02 0.02 0.03 0.05 0.07 0.08 0.08 0.07 0.06 0.06 0.07 0.07 0.06 0.05
0.01 0.01 0.02 0.02 0.02 0.02 0.02 0.01 0.01 0.01 0.01 0.01 0.00 0.00 0.00 0.01 0.02 0.01 0.01 0.01 0.00 0.01 0.02 0.03 0.04 0.04 0.04 0.03 0.02 0.02 0.02 0.02 0.02 0.03 0.04 0.05 0.04 0.04 0.04 0.05 0.06 0.06 0.04 0.03
0.02 0.03 0.05 0.04 0.03 0.02 0.01 0.01 0.01 0.01 0.01 0.00 0.00 0.01 0.01 0.02 0.02 0.02 0.01 0.01 0.01 0.02 0.03 0.04 0.06 0.04 0.03 0.03 0.02 0.01 0.01 0.01 0.02 0.02 0.02 0.02 0.03 0.03 0.03 0.04 0.04 0.04 0.04 0.03
0.06 0.06 0.06 0.04 0.03 0.02 0.02 0.01 0.01 0.01 0.01 0.01 0.02 0.02 0.02 0.03 0.03 0.02 0.01 0.01 0.02 0.03 0.04 0.05 0.06 0.04 0.02 0.01 0.01 0.01 0.01 0.01 0.01 0.01 0.02 0.01 0.01 0.01 0.01 0.01 0.02 0.03 0.03 0.03
0.04 0.04 0.04 0.03 0.02 0.02 0.02 0.02 0.03 0.02 0.03 0.03 0.03 0.03 0.04 0.04 0.03 0.03 0.02 0.02 0.03 0.05 0.05 0.06 0.05 0.04 0.02 0.01 0.01 0.01 0.01 0.01 0.01 0.01 0.01 0.01 0.01 0.01 0.01 0.02 0.04 0.05 0.05 0.05
0.03 0.03 0.03 0.03 0.02 0.02 0.03 0.04 0.04 0.03 0.02 0.02 0.02 0.02 0.03 0.04 0.05 0.04 0.05 0.05 0.03 0.03 0.05 0.05 0.04 0.03 0.02 0.02 0.02 0.02 0.02 0.02 0.02 0.02 0.02 0.01 0.01 0.01 0.02 0.03 0.04 0.04 0.05 0.05
0.03 0.03 0.03 0.02 0.02 0.02 0.02 0.02 0.03 0.03 0.03 0.03 0.03 0.03 0.03 0.04 0.05 0.08 0.10 0.06 0.04 0.03 0.04 0.04 0.03 0.03 0.03 0.02 0.02 0.02 0.02 0.02 0.02 0.01 0.01 0.01 0.01 0.01 0.02 0.03 0.06 0.07 0.08 0.06
0.04 0.04 0.03 0.03 0.02 0.01 0.01 0.01 0.02 0.03 0.03 0.04 0.04 0.03 0.03 0.05 0.08 0.08 0.06 0.05 0.03 0.02 0.02 0.02 0.02 0.01 0.02 0.01 0.01 0.01 0.01 0.01 0.01 0.01 0.01 0.01 0.01 0.01 0.03 0.06 0.07 0.08 0.06 0.04
0.04 0.04 0.04 0.03 0.02 0.01 0.01 0.02 0.03 0.04 0.05 0.04 0.04 0.03 0.03 0.04 0.05 0.05 0.04 0.04 0.04 0.03 0.01 0.01 0.00 0.00 0.01 0.01 0.01 0.01 0.01 0.01 0.01 0.01 0.01 0.01 0.01 0.01 0.03 0.04 0.05 0.05 0.05 0.04
0.03 0.03 0.04 0.03 0.03 0.02 0.02 0.04 0.06 0.07 0.06 0.05 0.04 0.04 0.05 0.06 0.04 0.02 0.02 0.02 0.02 0.03 0.02 0.01 0.01 0.00 0.01 0.01 0.01 0.01 0.01 0.01 0.01 0.01 0.01 0.01 0.01 0.01 0.02 0.03 0.04 0.04 0.04 0.05
0.02 0.04 0.04 0.03 0.03 0.02 0.03 0.04 0.04 0.05 0.05 0.05 0.05 0.05 0.04 0.02 0.01 0.01 0.01 0.01 0.01 0.02 0.03 0.02 0.02 0.01 0.01 0.01 0.00 0.01 0.01 0.01 0.01 0.01 0.01 0.01 0.01 0.01 0.01 0.01 0.01 0.01 0.02 0.03
0.03 0.04 0.04 0.02 0.02 0.02 0.03 0.03 0.04 0.04 0.04 0.03 0.03 0.02 0.01 0.01 0.01 0.01 0.01 0.00 0.01 0.01 0.01 0.02 0.03 0.03 0.02 0.03 0.02 0.01 0.01 0.01 0.01 0.01 0.01 0.01 0.01 0.01 0.01 0.01 0.01 0.02 0.03 0.04
0.03 0.05 0.03 0.02 0.02 0.02 0.03 0.04 0.04 0.04 0.03 0.02 0.02 0.02 0.02 0.01 0.01 0.01 0.01 0.01 0.01 0.01 0.01 0.02 0.03 0.04 0.03 0.02 0.03 0.03 0.02 0.01 0.02 0.02 0.01 0.01 0.01 0.01 0.01 0.01 0.01 0.02 0.02 0.04
0.03 0.03 0.02 0.03 0.03 0.03 0.03 0.03 0.02 0.02 0.02 0.02 0.02 0.02 0.02 0.02 0.02 0.01 0.01 0.01 0.01 0.01 0.01 0.01 0.02 0.02 0.03 0.03 0.02 0.03 0.03 0.03 0.03 0.03 0.03 0.03 0.02 0.01 0.01 0.02 0.02 0.02 0.02 0.03
0.03 0.03 0.03 0.02 0.02 0.03 0.02 0.01 0.01 0.01 0.01 0.01 0.02 0.03 0.03 0.03 0.02 0.01 0.01 0.01 0.01 0.01 0.01 0.01 0.01 0.01 0.01 0.02 0.02 0.02 0.03 0.03 0.04 0.04 0.04 0.04 0.04 0.04 0.03 0.02 0.02 0.02 0.03 0.03
0.04 0.04 0.03 0.02 0.02 0.02 0.01 0.01 0.01 0.01 0.01 0.02 0.02 0.03 0.03 0.03 0.03 0.02 0.02 0.02 0.01 0.01 0.01 0.01 0.01 0.01 0.00 0.01 0.01 0.01 0.02 0.03 0.03 0.04 0.04 0.04 0.04 0.04 0.04 0.04 0.03 0.03 0.03 0.03
0.04 0.03 0.03 0.02 0.02 0.01 0.01 0.01 0.01 0.01 0.01 0.02 0.02 0.03 0.02 0.03 0.03 0.02 0.02 0.01 0.01 0.01 0.01 0.01 0.01 0.00 0.00 0.00 0.00 0.01 0.02 0.02 0.03 0.03 0.03 0.04 0.04 0.04 0.04 0.04 0.04 0.05 0.05 0.05
0.02 0.02 0.02 0.01 0.01 0.01 0.01 0.01 0.01 0.01 0.02 0.02 0.02 0.02 0.03 0.03 0.04 0.03 0.02 0.01 0.01 0.01 0.01 0.01 0.01 0.01 0.01 0.01 0.01 0.01 0.02 0.02 0.03 0.03 0.03 0.03 0.03 0.03 0.03 0.03 0.04 0.04 0.04 0.04
0.03 0.03 0.02 0.02 0.01 0.02 0.02 0.02 0.02 0.02 0.02 0.02 0.02 0.02 0.03 0.04 0.04 0.04 0.02 0.01 0.01 0.01 0.01 0.01 0.01 0.02 0.01 0.01 0.01 0.02 0.03 0.03 0.03 0.03 0.03 0.05 0.06 0.05 0.03 0.03 0.03 0.03 0.03 0.03
0.04 0.03 0.02 0.02 0.02 0.03 0.03 0.03 0.03 0.04 0.05 0.03 0.02 0.03 0.04 0.05 0.05 0.04 0.02 0.02 0.02 0.02 0.02 0.02 0.01 0.01 0.01 0.01 0.01 0.02 0.03 0.04 0.03 0.03 0.04 0.06 0.08 0.07 0.05 0.04 0.04 0.04 0.04 0.04
0.04 0.04 0.03 0.03 0.03 0.03 0.04 0.04 0.05 0.06 0.07 0.06 0.03 0.03 0.03 0.04 0.04 0.03 0.02 0.02 0.02 0.02 0.02 0.02 0.01 0.01 0.00 0.00 0.00 0.01 0.01 0.03 0.03 0.03 0.04 0.05 0.06 0.06 0.06 0.05 0.03 0.03 0.04 0.04
MSLP
1006.13 1006.37 1006.64 1006.90 1007.10 1007.22 1007.19 1007.03 1006.71 1006.28 1005.77 1005.23 1004.71 1004.23 1003.82 1003.47 1003.16 1002.85 1002.51 1002.12 1001.68 1001.21 1000.75 1000.35 1000.07 999.95 1000.03 1000.32 1000.81 1001.45 1002.21 1003.02 1003.84 1004.63 1005.35 1006.01 1006.59 1007.11 1007.59 1008.03 1008.44 1008.83 1009.19 1009.53
1006.46 1006.71 1006.96 1007.20 1007.37 1007.44 1007.40 1007.22 1006.91 1006.50 1006.01 1005.50 1004.99 1004.52 1004.10 1003.72 1003.36 1003.02 1002.66 1002.27 1001.86 1001.46 1001.08 1000.78 1000.59 1000.55 1000.69 1000.99 1001.46 1002.04 1002.70 1003.39 1004.09 1004.75 1005.38 1005.96 1006.50 1007.02 1007.51 1007.99 1008.45 1008.89 1009.29 1009.66
1006.82 1007.07 1007.31 1007.51 1007.65 1007.69 1007.62 1007.42 1007.12 1006.72 1006.25 1005.74 1005.23 1004.75 1004.29 1003.86 1003.46 1003.07 1002.68 1002.29 1001.92 1001.58 1001.30 1001.10 1001.03 1001.09 1001.30 1001.64 1002.10 1002.63 1003.21 1003.79 1004.37 1004.92 1005.45 1005.95 1006.44 1006.93 1007.43 1007.93 1008.42 1008.90 1009.33 1009.71
1007.23 1007.47 1007.67 1007.83 1007.92 1007.91 1007.81 1007.60 1007.29 1006.89 1006.43 1005.93 1005.41 1004.90 1004.40 1003.92 1003.46 1003.03 1002.61 1002.23 1001.89 1001.61 1001.42 1001.33 1001.37 1001.53 1001.81 1002.20 1002.66 1003.15 1003.66 1004.16 1004.63 1005.08 1005.51 1005.93 1006.37 1006.82 1007.30 1007.81 1008.31 1008.80 1009.25 1009.65
1007.68 1007.88 1008.03 1008.13 1008.16 1008.10 1007.95 1007.71 1007.39 1006.99 1006.53 1006.03 1005.51 1004.98 1004.45 1003.94 1003.44 1002.97 1002.54 1002.16 1001.84 1001.62 1001.50 1001.50 1001.62 1001.87 1002.21 1002.63 1003.09 1003.57 1004.03 1004.45 1004.84 1005.20 1005.55 1005.90 1006.28 1006.69 1007.14 1007.62 1008.12 1008.60 1009.05 1009.43
1008.15 1008.30 1008.39 1008.42 1008.37 1008.25 1008.05 1007.77 1007.42 1007.02 1006.56 1006.07 1005.56 1005.03 1004.50 1003.97 1003.46 1002.98 1002.54 1002.16 1001.87 1001.69 1001.62 1001.68 1001.87 1002.16 1002.54 1002.98 1003.44 1003.89 1004.31 1004.68 1005.01 1005.30 1005.58 1005.87 1006.19 1006.55 1006.95 1007.39 1007.85 1008.30 1008.73 1009.10
1008.61 1008.71 1008.74 1008.69 1008.57 1008.38 1008.13 1007.81 1007.44 1007.03 1006.58 1006.11 1005.62 1005.11 1004.60 1004.09 1003.59 1003.12 1002.70 1002.34 1002.07 1001.91 1001.88 1001.97 1002.18 1002.50 1002.89 1003.32 1003.76 1004.18 1004.56 1004.88 1005.16 1005.40 1005.62 1005.85 1006.11 1006.41 1006.76 1007.14 1007.55 1007.96 1008.34 1008.68
1009.02 1009.09 1009.06 1008.96 1008.78 1008.54 1008.24 1007.89 1007.50 1007.09 1006.66 1006.22 1005.76 1005.30 1004.83 1004.36 1003.90 1003.47 1003.08 1002.75 1002.51 1002.37 1002.35 1002.45 1002.65 1002.95 1003.32 1003.72 1004.13 1004.50 1004.83 1005.11 1005.33 1005.52 1005.69 1005.86 1006.07 1006.31 1006.59 1006.91 1007.26 1007.60 1007.94 1008.24
1009.38 1009.42 1009.38 1009.24 1009.03 1008.75 1008.42 1008.06 1007.67 1007.27 1006.87 1006.46 1006.06 1005.66 1005.25 1004.85 1004.46 1004.08 1003.74 1003.45 1003.23 1003.10 1003.08 1003.16 1003.33 1003.59 1003.90 1004.25 1004.58 1004.90 1005.17 1005.39 1005.56 1005.69 1005.81 1005.93 1006.07 1006.25 1006.46 1006.71 1006.99 1007.28 1007.56 1007.82
1009.65 1009.71 1009.67 1009.54 1009.32 1009.04 1008.72 1008.36 1007.99 1007.62 1007.26 1006.90 1006.56 1006.23 1005.90 1005.57 1005.25 1004.94 1004.66 1004.41 1004.22 1004.10 1004.06 1004.11 1004.23 1004.42 1004.66 1004.91 1005.17 1005.40 1005.59 1005.74 1005.85 1005.92 1005.98 1006.04 1006.13 1006.24 1006.38 1006.56 1006.77 1007.00 1007.23 1007.45
1009.85 1009.94 1009.93 1009.84 1009.66 1009.42 1009.13 1008.82 1008.49 1008.16 1007.85 1007.55 1007.28 1007.01 1006.76 1006.51 1006.26 1006.03 1005.80 1005.60 1005.43 1005.32 1005.26 1005.26 1005.31 1005.42 1005.56 1005.71 1005.86 1005.99 1006.10 1006.16 1006.19 1006.20 1006.19 1006.19 1006.21 1006.26 1006.34 1006.46 1006.60 1006.77 1006.95 1007.14
1009.98 1010.12 1010.17 1010.14 1010.03 1009.86 1009.64 1009.39 1009.12 1008.86 1008.61 1008.38 1008.17 1007.97 1007.79 1007.61 1007.43 1007.26 1007.08 1006.92 1006.77 1006.65 1006.56 1006.51 1006.49 1006.50 1006.54 1006.58 1006.62 1006.64 1006.64 1006.61 1006.56 1006.49 1006.42 1006.36 1006.32 1006.31 1006.33 1006.39 1006.48 1006.60 1006.74 1006.89
1010.08 1010.26 1010.38 1010.43 1010.41 1010.32 1010.19 1010.02 1009.84 1009.65 1009.47 1009.31 1009.16 1009.02 1008.90 1008.78 1008.66 1008.53 1008.39 1008.26 1008.12 1007.99 1007.86 1007.76 1007.67 1007.59 1007.52 1007.45 1007.37 1007.28 1007.17 1007.05 1006.92 1006.78 1006.64 1006.53 1006.43 1006.38 1006.35 1006.37 1006.41 1006.48 1006.58 1006.69
1010.16 1010.39 1010.56 1010.69 1010.75 1010.76 1010.73 1010.66 1010.57 1010.46 1010.35 1010.25 1010.16 1010.08 1010.00 1009.92 1009.83 1009.74 1009.63 1009.50 1009.37 1009.22 1009.06 1008.90 1008.74 1008.58 1008.41 1008.24 1008.06 1007.86 1007.66 1007.46 1007.25 1007.05 1006.86 1006.70 1006.57 1006.47 1006.41 1006.39 1006.39 1006.42 1006.47 1006.53
1010.26 1010.50 1010.73 1010.91 1011.06 1011.16 1011.22 1011.25 1011.24 1011.22 1011.18 1011.14 1011.10 1011.06 1011.01 1010.96 1010.89 1010.81 1010.71 1010.59 1010.44 1010.27 1010.09 1009.88 1009.66 1009.42 1009.17 1008.91 1008.64 1008.37 1008.09 1007.82 1007.56 1007.31 1007.09 1006.90 1006.74 1006.62 1006.53 1006.47 1006.44 1006.43 1006.42 1006.42
1010.40 1010.65 1010.89 1011.12 1011.33 1011.50 1011.65 1011.75 1011.83 1011.88 1011.91 1011.92 1011.91 1011.90 1011.87 1011.83 1011.78 1011.70 1011.59 1011.46 1011.30 1011.11 1010.90 1010.65 1010.38 1010.09 1009.78 1009.46 1009.13 1008.79 1008.46 1008.14 1007.85 1007.57 1007.33 1007.12 1006.95 1006.82 1006.71 1006.63 1006.56 1006.50 1006.44 1006.37
1010.60 1010.83 1011.09 1011.34 1011.59 1011.82 1012.02 1012.19 1012.33 1012.44 1012.51 1012.56 1012.59 1012.60 1012.58 1012.54 1012.48 1012.39 1012.28 1012.14 1011.96 1011.75 1011.51 1011.24 1010.94 1010.61 1010.26 1009.89 1009.52 1009.15 1008.79 1008.45 1008.13 1007.84 1007.60 1007.39 1007.22 1007.08 1006.96 1006.85 1006.75 1006.64 1006.52 1006.38
1010.89 1011.10 1011.34 1011.60 1011.87 1012.13 1012.36 1012.58 1012.76 1012.91 1013.02 1013.10 1013.14 1013.15 1013.14 1013.10 1013.03 1012.93 1012.81 1012.65 1012.46 1012.24 1011.98 1011.69 1011.37 1011.02 1010.64 1010.26 1009.86 1009.47 1009.10 1008.74 1008.42 1008.14 1007.89 1007.69 1007.52 1007.37 1007.24 1007.12 1006.98 1006.83 1006.65 1006.43
1011.25 1011.45 1011.68 1011.94 1012.20 1012.47 1012.72 1012.95 1013.15 1013.32 1013.45 1013.54 1013.59 1013.60 1013.58 1013.54 1013.46 1013.35 1013.22 1013.05 1012.85 1012.62 1012.36 1012.06 1011.73 1011.37 1010.99 1010.59 1010.19 1009.79 1009.40 1009.04 1008.72 1008.43 1008.19 1007.98 1007.81 1007.67 1007.53 1007.38 1007.22 1007.03 1006.79 1006.51
1011.69 1011.88 1012.10 1012.34 1012.60 1012.85 1013.10 1013.33 1013.53 1013.69 1013.82 1013.91 1013.96 1013.98 1013.96 1013.90 1013.82 1013.70 1013.57 1013.40 1013.20 1012.97 1012.71 1012.41 1012.08 1011.73 1011.34 1010.94 1010.52 1010.11 1009.71 1009.34 1009.00 1008.70 1008.45 1008.24 1008.06 1007.90 1007.75 1007.59 1007.41 1007.18 1006.91 1006.59
1012.16 1012.36 1012.58 1012.80 1013.04 1013.27 1013.49 1013.70 1013.88 1014.04 1014.16 1014.24 1014.28 1014.29 1014.27 1014.21 1014.13 1014.02 1013.88 1013.72 1013.52 1013.30 1013.05 1012.76 1012.44 1012.08 1011.70 1011.28 1010.86 1010.43 1010.01 1009.61 1009.25 1008.93 1008.65 1008.41 1008.22 1008.04 1007.87 1007.70 1007.50 1007.26 1006.98 1006.65
1012.64 1012.85 1013.06 1013.27 1013.47 1013.67 1013.86 1014.04 1014.19 1014.32 1014.42 1014.50 1014.53 1014.54 1014.51 1014.46 1014.38 1014.28 1014.15 1014.00 1013.82 1013.62 1013.38 1013.10 1012.79 1012.43 1012.04 1011.62 1011.17 1010.71 1010.26 1009.83 1009.43 1009.06 1008.75 1008.48 1008.25 1008.05 1007.87 1007.68 1007.48 1007.25 1006.97 1006.65
1013.06 1013.28 1013.48 1013.66 1013.84 1014.00 1014.15 1014.29 1014.41 1014.51 1014.60 1014.65 1014.68 1014.69 1014.66 1014.62 1014.55 1014.46 1014.35 1014.22 1014.06 1013.87 1013.65 1013.39 1013.08 1012.73 1012.33 1011.89 1011.42 1010.93 1010.44 1009.97 1009.52 1009.10 1008.74 1008.43 1008.16 1007.94 1007.74 1007.56 1007.36 1007.15 1006.90 1006.62
1013.40 1013.61 1013.79 1013.94 1014.07 1014.19 1014.30 1014.40 1014.50 1014.57 1014.64 1014.68 1014.71 1014.71 1014.70 1014.66 1014.61 1014.53 1014.44 1014.32 1014.18 1014.01 1013.81 1013.56 1013.26 1012.91 1012.51 1012.06 1011.57 1011.06 1010.53 1010.01 1009.51 1009.06 1008.65 1008.30 1008.00 1007.75 1007.54 1007.36 1007.18 1007.00 1006.80 1006.56
1013.60 1013.79 1013.94 1014.05 1014.14 1014.22 1014.29 1014.36 1014.42 1014.48 1014.53 1014.56 1014.59 1014.59 1014.58 1014.56 1014.51 1014.45 1014.37 1014.27 1014.14 1013.98 1013.79 1013.55 1013.27 1012.92 1012.53 1012.08 1011.58 1011.05 1010.51 1009.97 1009.44 1008.95 1008.51 1008.13 1007.81 1007.55 1007.34 1007.16 1007.01 1006.86 1006.69 1006.51
1013.67 1013.82 1013.93 1013.99 1014.04 1014.08 1014.12 1014.16 1014.20 1014.24 1014.28 1014.31 1014.34 1014.34 1014.33 1014.31 1014.26 1014.20 1014.12 1014.02 1013.90 1013.75 1013.57 1013.34 1013.07 1012.75 1012.37 1011.93 1011.45 1010.93 1010.39 1009.85 1009.32 1008.82 1008.38 1007.99 1007.66 1007.40 1007.19 1007.02 1006.89 1006.77 1006.64 1006.50
1013.63 1013.72 1013.78 1013.80 1013.81 1013.82 1013.83 1013.85 1013.88 1013.92 1013.95 1013.98 1013.99 1013.99 1013.98 1013.94 1013.88 1013.81 1013.71 1013.61 1013.48 1013.33 1013.14 1012.93 1012.68 1012.38 1012.03 1011.63 1011.19 1010.71 1010.21 1009.70 1009.20 1008.73 1008.30 1007.93 1007.61 1007.35 1007.16 1007.00 1006.88 1006.77 1006.66 1006.54
Thickness
5765 5771 5773 5770 5770 5774 5774 5778 5777 5784 5787 5794 5799 5802 5804 5804 5803 5802 5801 5802 5803 5801 5800 5800 5799 5798 5797 5795 5793 5790 5785 5781 5778 5776 5773 5770 5766 5763 5761 5758 5756 5753 5749 5746
5751 5761 5763 5761 5767 5769 5771 5776 5778 5781 5782 5797 5799 5799 5796 5796 5796 5794 5795 5797 5799 5798 5797 5796 5795 5794 5793 5791 5789 5786 5781 5778 5775 5772 5769 5766 5763 5760 5757 5754 5751 5748 5745 5743
5741 5752 5750 5747 5763 5766 5767 5774 5776 5772 5780 5790 5786 5785 5787 5789 5789 5789 5791 5792 5792 5794 5794 5793 5793 5791 5789 5787 5785 5781 5777 5774 5771 5768 5764 5762 5760 5756 5752 5749 5746 5743 5741 5739
5735 5732 5720 5753 5771 5769 5765 5767 5774 5774 5777 5779 5779 5782 5784 5784 5783 5782 5785 5786 5787 5789 5790 5790 5790 5788 5785 5783 5779 5776 5772 5769 5766 5763 5759 5757 5754 5750 5747 5745 5742 5739 5736 5734
5726 5723 5731 5745 5756 5759 5754 5755 5767 5766 5767 5771 5775 5776 5776 5778 5778 5777 5779 5781 5783 5785 5786 5785 5783 5781 5779 5776 5773 5770 5767 5764 5762 5758 5755 5752 5749 5745 5743 5740 5737 5735 5732 5729
5717 5712 5715 5736 5749 5756 5750 5742 5760 5760 5759 5762 5764 5762 5764 5769 5771 5772 5774 5776 5778 5780 5780 5777 5776 5774 5771 5769 5767 5764 5762 5760 5757 5753 5750 5747 5744 5741 5738 5736 5733 5731 5728 5725
5710 5710 5723 5737 5744 5744 5727 5736 5751 5754 5753 5754 5755 5757 5759 5762 5762 5764 5766 5769 5771 5771 5770 5769 5768 5767 5764 5762 5760 5760 5758 5754 5751 5748 5745 5742 5738 5735 5732 5730 5727 5725 5722 5720
5707 5703 5710 5730 5733 5729 5732 5740 5744 5746 5747 5747 5748 5750 5751 5752 5753 5756 5757 5759 5761 5760 5759 5760 5761 5759 5756 5755 5755 5754 5751 5747 5745 5743 5741 5738 5733 5730 5727 5724 5720 5718 5715 5714
5705 5707 5714 5723 5725 5728 5731 5731 5734 5737 5739 5740 5739 5740 5742 5743 5744 5746 5747 5749 5751 5751 5750 5751 5751 5750 5748 5746 5747 5746 5743 5740 5738 5736 5734 5732 5728 5724 5721 5718 5717 5715 5713 5711
5696 5703 5708 5712 5717 5721 5724 5725 5729 5731 5732 5732 5731 5731 5732 5733 5734 5735 5737 5738 5740 5740 5740 5739 5740 5741 5739 5738 5738 5737 5734 5732 5731 5729 5727 5725 5722 5720 5717 5714 5712 5710 5709 5706
5688 5695 5700 5704 5708 5712 5715 5718 5720 5722 5723 5723 5721 5720 5722 5722 5723 5724 5726 5728 5729 5728 5728 5728 5729 5729 5729 5729 5728 5727 5726 5724 5723 5722 5720 5717 5715 5712 5711 5708 5706 5703 5703 5700
5686 5690 5693 5694 5701 5706 5707 5708 5710 5712 5712 5713 5713 5712 5712 5712 5712 5713 5715 5717 5717 5718 5718 5718 5718 5718 5718 5718 5718 5717 5717 5716 5717 5716 5714 5711 5708 5705 5700 5699 5695 5692 5690 5688
5685 5688 5690 5692 5695 5699 5700 5701 5702 5702 5702 5702 5703 5704 5704 5702 5702 5703 5704 5706 5706 5707 5708 5708 5708 5708 5708 5709 5709 5708 5708 5707 5708 5708 5707 5704 5702 5699 5696 5691 5686 5684 5681 5678
5680 5681 5681 5685 5688 5691 5693 5693 5694 5693 5693 5693 5693 5693 5693 5693 5694 5694 5694 5696 5697 5698 5699 5699 5699 5699 5700 5700 5700 5699 5700 5699 5698 5698 5698 5697 5695 5693 5691 5688 5684 5682 5676 5670
5674 5676 5678 5680 5682 5683 5684 5684 5683 5682 5682 5682 5683 5682 5682 5683 5683 5684 5686 5688 5689 5689 5689 5689 5689 5689 5691 5691 5690 5690 5691 5691 5690 5690 5689 5688 5687 5686 5684 5681 5678 5676 5673 5667
5668 5670 5672 5672 5672 5674 5675 5675 5674 5673 5673 5673 5673 5673 5674 5675 5676 5676 5677 5678 5679 5679 5678 5679 5679 5680 5681 5681 5681 5682 5681 5678 5679 5681 5681 5679 5677 5676 5674 5672 5669 5667 5665 5662
5660 5661 5663 5664 5665 5666 5667 5667 5667 5665 5664 5664 5665 5666 5667 5667 5667 5667 5668 5669 5670 5670 5670 5670 5670 5671 5672 5672 5672 5674 5674 5672 5668 5671 5672 5670 5668 5666 5664 5662 5660 5658 5656 5652
5658 5659 5660 5660 5660 5659 5659 5659 5659 5658 5657 5658 5658 5659 5659 5659 5658 5659 5660 5662 5662 5662 5662 5662 5662 5662 5662 5662 5662 5663 5664 5664 5664 5663 5662 5660 5658 5656 5655 5653 5651 5649 5646 5644
5653 5653 5654 5654 5655 5654 5653 5652 5652 5652 5651 5651 5650 5650 5651 5651 5651 5652 5653 5653 5653 5653 5653 5653 5649 5652 5653 5652 5651 5652 5655 5655 5654 5653 5653 5649 5649 5648 5645 5643 5642 5640 5637 5634
5648 5649 5649 5649 5649 5649 5648 5647 5647 5646 5646 5645 5644 5643 5643 5643 5644 5645 5645 5646 5648 5647 5646 5644 5644 5644 5644 5643 5641 5645 5645 5644 5644 5644 5643 5643 5641 5639 5637 5635 5633 5631 5629 5627
5643 5643 5643 5643 5643 5644 5643 5643 5642 5640 5640 5639 5637 5636 5635 5636 5637 5638 5639 5640 5640 5638 5637 5634 5635 5636 5636 5634 5632 5636 5636 5635 5635 5635 5634 5633 5632 5630 5628 5627 5625 5623 5621 5619
5638 5638 5638 5638 5637 5637 5637 5638 5637 5636 5635 5633 5633 5632 5630 5629 5631 5632 5632 5632 5632 5628 5629 5630 5629 5626 5625 5622 5626 5627 5626 5626 5626 5626 5625 5624 5623 5621 5619 5617 5614 5612 5611 5609
5632 5632 5633 5632 5632 5632 5632 5633 5632 5631 5630 5629 5627 5626 5626 5625 5626 5626 5626 5626 5626 5621 5621 5622 5618 5614 5612 5616 5618 5618 5618 5617 5617 5616 5615 5614 5613 5611 5609 5607 5605 5603 5601 5599
5627 5627 5627 5628 5628 5627 5626 5627 5627 5626 5626 5625 5625 5624 5622 5621 5621 5622 5622 5618 5615 5613 5615 5612 5607 5606 5604 5609 5610 5610 5609 5608 5608 5607 5606 5605 5604 5603 5601 5599 5597 5595 5593 5590
5621 5622 5622 5622 5622 5623 5623 5622 5621 5621 5622 5622 5622 5620 5620 5619 5617 5617 5616 5613 5609 5607 5608 5605 5600 5599 5600 5602 5602 5601 5600 5599 5598 5597 5596 5595 5594 5593 5592 5589 5587 5585 5583 5581
5617 5618 5619 5618 5619 5619 5621 5620 5620 5619 5619 5617 5616 5615 5614 5613 5611 5610 5608 5607 5605 5600 5601 5600 5598 5595 5596 5596 5594 5593 5592 5590 5590 5589 5588 5587 5585 5583 5581 5579 5577 5575 5572 5570
5614 5614 5614 5615 5615 5615 5616 5616 5615 5614 5613 5611 5610 5609 5608 5607 5605 5604 5602 5601 5599 5597 5595 5594 5593 5591 5589 5587 5586 5585 5584 5582 5581 5580 5579 5577 5575 5573 5571 5569 5567 5565 5563 5561